Probability
0 0 0 0 0 0 0 0 0 0 0 0 0 0 0 0 0 0 0 0 0 0 0 0 0 1 2 3 2 1 1 0 0 0 0 0 0 0 0 0 0 0 0 0
0 0 0 0 0 0 0 0 0 0 0 0 0 0 0 0 0 0 0 0 0 0 0 0 0 1 2 3 3 2 2 1 0 0 0 0 0 0 0 0 0 0 0 0
0 0 0 0 0 0 0 0 0 0 0 0 0 0 0 0 0 0 0 0 0 0 0 0 0 0 1 3 3 3 3 2 1 0 0 0 0 0 0 0 0 0 0 0
0 0 0 0 0 0 0 0 0 0 0 0 0 0 0 0 0 0 0 0 0 0 0 0 1 1 1 2 3 3 3 2 1 0 0 0 0 0 0 0 0 0 0 0
0 0 0 0 0 0 0 0 0 0 0 0 0 0 0 0 0 0 0 0 0 0 0 0 1 1 1 2 4 4 3 3 1 0 0 0 0 0 0 0 0 0 0 0
0 0 0 0 0 0 0 0 0 0 0 0 0 0 0 0 0 0 0 0 0 0 0 0 1 1 0 1 4 4 3 3 2 1 1 0 0 0 0 0 0 0 0 0
0 0 0 0 0 0 0 0 0 0 0 0 0 0 0 0 0 0 0 0 0 0 0 0 0 0 0 1 3 4 3 3 2 2 1 0 0 0 0 0 0 0 0 0
0 0 0 0 0 0 0 0 0 0 0 0 0 0 0 0 0 0 0 0 0 0 0 0 0 0 0 1 3 4 3 2 2 1 1 0 0 0 0 0 1 1 0 0
0 0 0 0 0 0 0 0 0 0 0 0 0 0 0 0 0 0 0 0 0 0 0 0 0 0 0 1 2 3 3 3 2 2 1 0 0 0 0 0 1 1 1 1
0 0 0 0 0 0 0 0 0 0 0 0 0 0 0 0 0 0 0 0 0 0 0 0 0 0 0 1 2 2 2 2 2 2 1 0 0 0 0 0 0 0 1 1
0 0 0 0 0 0 0 0 0 0 0 0 0 0 0 0 0 0 0 0 0 0 0 0 0 0 0 0 1 1 1 1 1 1 1 0 0 0 0 0 0 0 0 1
0 0 0 0 0 0 0 0 0 0 0 0 0 0 0 0 0 0 0 0 0 0 0 0 0 0 0 0 0 0 0 0 0 0 0 0 0 0 0 0 0 0 0 0
0 0 0 0 0 0 0 0 0 0 0 0 0 0 0 0 0 0 0 0 0 0 0 0 0 0 0 0 0 0 0 0 0 0 0 0 0 0 0 0 0 0 0 0
0 0 0 0 0 0 0 0 0 0 0 0 0 0 0 0 0 0 0 0 0 0 0 0 0 0 0 0 0 0 0 0 0 0 0 0 0 0 0 0 0 0 0 0
0 0 0 0 0 0 0 0 0 0 0 0 0 0 0 0 0 0 0 0 0 0 0 0 0 0 0 0 0 0 0 0 0 0 0 0 0 0 0 0 0 0 0 0
0 0 0 0 0 0 0 0 0 0 0 0 0 0 0 0 0 0 0 0 0 0 0 0 0 0 0 0 0 0 0 0 0 0 0 0 0 0 0 0 0 0 0 0
0 0 0 0 0 0 0 0 0 0 0 0 0 0 0 0 0 0 0 0 0 0 0 0 0 0 0 0 0 0 0 0 0 0 0 0 0 0 0 0 0 0 0 0
0 0 0 0 0 0 0 0 0 0 0 0 0 0 0 0 0 0 0 0 0 0 0 0 0 0 0 0 0 0 0 0 0 0 0 0 0 0 0 0 0 0 0 0
0 0 0 0 0 0 0 0 0 0 0 0 0 0 0 0 0 0 0 0 0 0 0 0 0 0 0 0 0 0 0 0 0 0 0 0 0 0 0 0 0 0 0 0
0 0 0 0 0 0 0 0 0 0 0 0 0 0 0 0 0 0 0 0 0 0 0 0 0 0 0 0 0 0 0 0 0 0 0 0 0 0 0 0 0 0 0 0
0 0 0 0 0 0 0 0 0 0 0 0 0 0 0 0 0 0 0 0 0 0 0 0 0 0 0 0 0 0 0 0 0 0 0 0 0 0 0 0 0 0 0 0
0 0 0 0 0 0 0 0 0 0 0 0 0 0 0 0 0 0 0 0 0 0 0 0 0 0 0 0 0 0 0 0 0 0 0 0 0 0 0 0 0 0 0 0
0 0 0 0 0 0 0 0 0 0 0 0 0 0 0 0 0 0 0 0 0 0 0 0 0 0 0 0 0 0 0 0 0 0 0 0 0 0 0 0 0 0 0 0
0 0 0 0 0 0 0 0 0 0 0 0 0 0 0 0 0 0 0 0 0 0 0 0 0 0 0 0 0 0 0 0 0 0 0 0 0 0 0 0 0 0 0 0
0 0 0 0 0 0 0 0 0 0 0 0 0 0 0 0 0 0 0 0 0 0 0 0 0 0 0 0 0 0 0 0 0 0 0 0 0 0 0 0 0 0 0 0
0 0 0 0 0 0 0 0 0 0 0 0 0 0 0 0 0 0 0 0 0 0 0 0 0 0 0 0 0 0 0 0 0 0 0 0 0 0 0 0 0 0 0 0
Wind_Speed
1 2 2 3 3 2 1 1 2 3 3 1 3 4 4 4 2 2 2 2 1 1 2 1 1 1 1 1 1 2 2 2 2 2 3 3 4 3 3 4 5 6 6 6
2 1 3 3 2 1 1 1 2 3 3 1 2 3 3 2 1 2 1 1 2 2 4 4 3 2 2 1 1 1 2 2 2 3 3 2 2 2 2 2 4 5 6 6
2 3 2 1 1 2 3 3 3 2 4 2 1 4 3 2 1 2 2 1 1 2 2 3 4 3 2 2 0 1 1 1 1 1 0 1 1 0 0 1 2 3 4 5
1 3 1 2 3 4 5 3 3 2 1 2 1 2 4 3 2 3 3 2 2 3 2 3 3 4 3 2 1 1 0 1 0 1 1 1 1 2 3 2 2 1 2 3
2 2 0 2 3 3 3 2 2 2 2 1 0 2 6 2 2 2 2 2 2 3 3 3 3 2 2 2 2 2 2 2 1 1 1 1 1 1 1 1 1 1 1 2
2 2 1 2 2 2 1 2 3 2 2 3 4 4 5 2 2 1 2 2 2 4 4 4 4 4 4 5 4 4 4 4 3 2 1 0 1 1 1 1 1 2 2 2
4 3 3 1 1 1 2 4 2 2 0 5 2 3 4 2 1 1 0 1 2 3 4 5 6 6 6 6 6 5 4 4 3 3 2 1 1 1 1 1 1 2 2 2
2 4 3 2 0 1 2 4 5 4 4 3 1 4 2 2 2 2 2 2 3 4 4 4 4 4 5 5 6 6 5 5 4 3 2 2 2 1 1 2 1 2 2 2
1 4 4 3 2 2 2 2 2 2 1 1 2 2 2 3 4 4 4 4 4 4 4 4 4 4 4 4 5 5 5 6 5 4 4 3 3 3 3 3 2 2 2 2
1 3 4 4 2 2 1 2 2 3 3 2 2 2 2 2 2 3 4 3 4 4 5 6 6 5 5 4 4 5 5 5 5 5 4 3 3 3 3 3 3 3 3 3
0 1 4 3 1 1 1 1 1 2 2 3 2 4 2 2 1 1 2 3 3 3 4 4 5 5 5 5 5 5 5 6 6 6 5 4 4 3 3 3 3 3 3 3
2 1 2 3 3 2 0 1 3 3 2 1 1 4 2 1 1 1 2 3 3 3 3 3 4 5 6 6 6 6 6 6 6 6 6 5 5 5 4 4 4 4 3 3
2 2 2 5 4 4 2 1 1 2 2 2 2 4 3 3 4 3 3 3 4 3 3 4 4 5 5 5 6 6 6 5 5 5 5 5 5 5 5 5 5 5 4 4
3 2 2 4 4 3 3 3 2 1 2 2 4 5 5 4 3 3 3 3 3 3 3 3 4 4 5 4 5 5 5 5 5 5 4 4 5 5 4 4 5 5 4 4
3 1 2 4 5 3 4 5 3 2 4 4 4 5 6 4 2 2 2 2 3 3 4 3 4 4 4 4 4 5 5 5 5 5 5 4 4 4 4 4 4 4 4 4
3 1 2 4 4 3 4 5 4 4 3 4 4 5 4 2 1 2 2 3 3 3 4 4 4 4 4 4 5 5 5 5 5 5 5 5 4 5 5 4 4 4 4 4
1 1 2 3 6 4 4 5 3 2 2 3 4 4 1 2 2 2 2 2 2 3 4 4 4 4 4 4 4 4 5 4 4 4 5 4 4 5 5 5 4 4 4 5
2 1 1 2 4 2 6 2 2 2 2 2 2 2 1 1 2 2 1 1 2 4 5 5 5 5 5 4 4 4 4 4 4 4 5 5 4 5 5 4 4 4 4 4
3 3 2 1 1 7 8 4 2 2 2 1 1 1 1 2 2 2 1 2 2 4 4 4 4 5 5 5 4 4 4 4 4 4 5 5 5 5 5 5 5 4 4 4
2 3 3 2 1 6 6 3 2 1 3 2 1 2 2 1 2 4 3 4 5 4 4 4 5 4 4 5 4 4 4 4 5 5 5 5 4 4 5 5 5 4 4 4
1 1 2 3 4 9 7 4 1 2 5 2 1 2 1 2 4 4 4 4 4 5 5 4 4 4 5 5 4 5 5 5 5 5 5 5 5 5 5 5 4 4 4 4
5 4 4 4 4 9 3 3 4 6 2 2 2 2 2 3 4 4 4 5 5 5 5 5 5 5 5 4 4 5 6 6 5 5 5 5 5 4 4 4 4 4 3 4
6 8 6 8 9 5 3 5 4 3 3 3 3 3 3 4 4 5 5 5 5 5 5 4 5 6 6 5 4 6 7 6 5 5 5 5 5 4 4 4 4 3 3 3
4 3 4 6 8 7 5 4 4 3 4 4 3 3 3 4 5 5 5 5 5 5 4 4 5 6 7 6 5 6 7 6 5 5 5 5 5 5 4 3 3 3 3 3
7 4 4 7 8 5 6 7 7 5 3 3 3 3 4 4 5 5 5 5 5 5 4 4 5 6 7 7 6 6 5 5 5 5 5 5 4 4 4 4 3 4 4 5
8 9 9 10 8 6 6 5 5 5 5 5 4 4 4 4 5 4 5 4 4 5 5 5 5 6 7 7 7 6 5 4 4 5 4 4 4 3 3 4 5 6 7 9
Wind_Direction
35 96 183 208 200 190 171 162 228 250 289 235 236 270 297 317 352 338 338 349 339 281 299 5 42 86 92 95 131 162 182 197 179 181 197 203 211 208 207 209 207 205 204 202
54 263 244 221 213 200 217 240 279 302 308 255 234 278 292 303 280 255 250 294 328 348 11 21 26 44 70 104 165 168 180 186 198 216 208 209 208 211 210 212 215 212 211 208
170 258 247 181 216 218 229 212 229 271 332 342 53 321 310 305 331 3 353 349 15 23 12 16 26 20 29 33 54 204 197 200 224 269 119 69 67 33 213 245 237 234 226 221
266 292 256 189 214 200 236 226 221 229 220 284 147 270 284 275 338 2 352 9 19 15 20 19 22 22 15 351 354 17 86 86 38 82 88 137 192 226 238 259 248 266 241 238
303 327 292 212 232 196 226 231 212 203 190 275 212 193 285 312 300 312 335 11 28 26 36 36 29 23 9 8 23 18 29 39 39 97 151 187 234 257 307 356 338 302 276 258
285 310 318 253 249 210 209 60 36 43 95 244 224 185 273 263 245 260 306 357 39 35 38 41 32 34 26 19 22 27 33 27 21 25 45 205 261 301 348 314 289 299 302 292
348 335 333 353 28 7 90 108 69 25 350 246 226 183 250 284 294 185 218 27 42 46 46 41 33 32 29 26 23 23 33 27 17 16 8 348 301 255 242 260 266 291 298 308
19 321 325 348 189 201 194 151 159 178 206 257 221 210 257 323 344 36 62 67 53 44 43 43 32 29 30 29 28 29 27 18 14 10 348 352 354 322 300 303 302 283 285 291
18 287 310 321 320 142 141 182 171 134 85 174 234 264 308 4 16 28 37 40 34 30 31 32 27 25 25 26 26 25 24 19 12 10 10 16 9 360 347 339 334 322 326 324
225 280 304 313 5 4 145 135 108 136 153 212 259 248 235 315 342 9 31 33 17 18 25 28 26 21 19 19 17 21 25 19 11 9 10 11 4 359 357 3 357 346 335 334
42 328 320 355 11 288 69 117 139 141 173 174 211 258 225 238 288 38 25 20 22 32 27 24 18 17 21 25 24 21 19 17 13 8 5 8 7 8 9 8 359 349 345 346
335 97 310 286 279 314 264 188 155 161 228 217 196 259 322 333 346 50 29 17 15 29 32 30 21 20 24 24 20 19 17 16 9 6 7 7 6 9 11 4 354 351 347 345
345 62 6 344 345 360 10 347 158 155 149 168 183 255 323 357 4 7 11 360 7 20 27 26 23 19 15 13 11 11 11 10 5 8 10 9 8 7 4 357 353 352 352 353
26 58 165 213 257 295 304 303 290 172 194 211 223 247 289 315 337 345 352 351 359 13 21 20 15 12 7 4 1 2 360 3 2 4 8 7 2 354 352 351 352 350 349 351
47 49 279 276 284 274 274 280 270 220 223 217 238 246 273 285 295 315 332 352 6 11 12 6 0 357 353 352 351 355 352 354 355 356 358 356 353 351 349 349 349 346 345 343
29 21 336 316 319 302 290 285 265 248 240 231 241 266 276 303 356 351 342 348 357 350 347 343 343 342 338 337 337 341 341 340 347 347 343 343 347 349 346 343 344 345 343 340
352 63 31 303 322 2 305 265 232 222 226 204 226 248 298 358 344 331 337 353 348 333 332 332 329 321 317 317 319 322 322 328 337 335 333 335 337 337 335 333 338 338 334 333
177 104 109 334 16 281 251 280 236 220 266 238 239 282 321 294 300 307 319 1 338 331 327 323 322 320 316 312 314 316 321 325 326 325 323 324 327 325 325 325 324 325 324 318
182 146 114 92 321 282 293 283 230 216 279 276 210 261 288 289 327 319 351 1 315 306 304 303 307 307 311 315 315 319 321 322 318 314 314 316 315 313 315 314 314 317 314 308
105 119 120 122 192 248 262 287 296 76 280 276 195 242 276 305 305 281 321 325 315 312 308 306 310 314 317 318 323 319 311 311 305 305 306 308 306 302 301 300 304 308 304 299
76 84 159 185 232 262 262 283 71 153 255 272 208 226 238 231 240 268 301 305 306 304 306 312 316 319 315 319 325 311 303 298 300 305 306 304 301 296 292 292 295 298 297 299
186 182 196 169 210 258 244 141 183 224 245 214 216 220 235 250 266 274 282 292 302 310 318 326 326 317 318 329 327 311 301 302 310 309 305 301 300 297 296 293 295 296 294 296
208 198 193 196 217 238 201 206 222 194 212 227 224 236 233 253 266 276 283 289 298 305 312 320 316 310 317 325 321 304 304 312 314 308 300 300 301 298 295 290 293 297 290 283
252 209 211 247 255 247 243 242 245 230 228 235 231 237 230 245 260 270 279 290 299 304 309 314 312 307 308 316 313 298 307 315 309 301 300 301 299 300 301 294 286 281 278 277
226 197 214 249 266 277 255 236 239 242 236 242 250 238 235 241 257 261 274 285 293 302 309 310 303 298 301 310 307 306 310 315 304 298 296 298 296 296 299 296 287 286 270 264
200 192 198 229 224 211 236 228 214 221 235 235 240 255 251 234 249 263 270 278 288 296 304 304 301 299 302 306 304 307 309 304 298 298 298 296 297 297 297 300 303 298 297 293